owner,sensor,date,latitude,longitude,vertical_datum,sea_water_practical_salinity,qcFlag 
ENP,ioos.station.NOAA.NDBC:GBIF1:1,2016-10-01T00:00:00Z,25.3780,-81.0290,1.5,4.65,1111122 
ENP,ioos.station.NOAA.NDBC:GBIF1:1,2016-10-01T01:00:00Z,25.3780,-81.0290,1.5,2.99,1111122 
ENP,ioos.station.NOAA.NDBC:GBIF1:1,2016-10-01T02:00:00Z,25.3780,-81.0290,1.5,2.18,1111122 
ENP,ioos.station.NOAA.NDBC:GBIF1:1,2016-10-01T04:00:00Z,25.3780,-81.0290,1.5,1.74,1111122 
ENP,ioos.station.NOAA.NDBC:GBIF1:1,2016-10-01T05:00:00Z,25.3780,-81.0290,1.5,1.01,1111122 
ENP,ioos.station.NOAA.NDBC:GBIF1:1,2016-10-01T07:00:00Z,25.3780,-81.0290,1.5,1.4,1111122 
ENP,ioos.station.NOAA.NDBC:GBIF1:1,2016-10-01T08:00:00Z,25.3780,-81.0290,1.5,5.24,1111122 
ENP,ioos.station.NOAA.NDBC:GBIF1:1,2016-10-01T09:00:00Z,25.3780,-81.0290,1.5,9.4,1111122 
ENP,ioos.station.NOAA.NDBC:GBIF1:1,2016-10-01T10:00:00Z,25.3780,-81.0290,1.5,10.04,1111122 
ENP,ioos.station.NOAA.NDBC:GBIF1:1,2016-10-01T11:00:00Z,25.3780,-81.0290,1.5,5.46,1111122 
ENP,ioos.station.NOAA.NDBC:GBIF1:1,2016-10-01T12:00:00Z,25.3780,-81.0290,1.5,3.48,1111122 
ENP,ioos.station.NOAA.NDBC:GBIF1:1,2016-10-01T13:00:00Z,25.3780,-81.0290,1.5,2.26,1111122 
ENP,ioos.station.NOAA.NDBC:GBIF1:1,2016-10-01T14:00:00Z,25.3780,-81.0290,1.5,1.81,1111122 
ENP,ioos.station.NOAA.NDBC:GBIF1:1,2016-10-01T15:00:00Z,25.3780,-81.0290,1.5,1.73,1111122 
ENP,ioos.station.NOAA.NDBC:GBIF1:1,2016-10-01T16:00:00Z,25.3780,-81.0290,1.5,1.68,1111122 
ENP,ioos.station.NOAA.NDBC:GBIF1:1,2016-10-01T17:00:00Z,25.3780,-81.0290,1.5,1.11,1111122 
ENP,ioos.station.NOAA.NDBC:GBIF1:1,2016-10-01T18:00:00Z,25.3780,-81.0290,1.5,0.87,1111122 
ENP,ioos.station.NOAA.NDBC:GBIF1:1,2016-10-01T19:00:00Z,25.3780,-81.0290,1.5,0.91,1111122 
ENP,ioos.station.NOAA.NDBC:GBIF1:1,2016-10-01T20:00:00Z,25.3780,-81.0290,1.5,1.39,1111122 
ENP,ioos.station.NOAA.NDBC:GBIF1:1,2016-10-01T21:00:00Z,25.3780,-81.0290,1.5,5.99,1111122 
ENP,ioos.station.NOAA.NDBC:GBIF1:1,2016-10-01T22:00:00Z,25.3780,-81.0290,1.5,7.85,1111122 
ENP,ioos.station.NOAA.NDBC:GBIF1:1,2016-10-01T23:00:00Z,25.3780,-81.0290,1.5,4.5,1111122 
ENP,ioos.station.NOAA.NDBC:GBIF1:1,2016-10-02T00:00:00Z,25.3780,-81.0290,1.5,2.49,1111122 
ENP,ioos.station.NOAA.NDBC:GBIF1:1,2016-10-02T01:00:00Z,25.3780,-81.0290,1.5,1.71,1111122 
ENP,ioos.station.NOAA.NDBC:GBIF1:1,2016-10-02T04:00:00Z,25.3780,-81.0290,1.5,1.47,1111122 
ENP,ioos.station.NOAA.NDBC:GBIF1:1,2016-10-02T05:00:00Z,25.3780,-81.0290,1.5,1.12,1111122 
ENP,ioos.station.NOAA.NDBC:GBIF1:1,2016-10-02T07:00:00Z,25.3780,-81.0290,1.5,0.91,1111122 
ENP,ioos.station.NOAA.NDBC:GBIF1:1,2016-10-02T08:00:00Z,25.3780,-81.0290,1.5,1.18,1111122 
ENP,ioos.station.NOAA.NDBC:GBIF1:1,2016-10-02T09:00:00Z,25.3780,-81.0290,1.5,4.53,1111122 
ENP,ioos.station.NOAA.NDBC:GBIF1:1,2016-10-02T10:00:00Z,25.3780,-81.0290,1.5,7.38,1111122 
ENP,ioos.station.NOAA.NDBC:GBIF1:1,2016-10-02T12:00:00Z,25.3780,-81.0290,1.5,2.58,1111122 
ENP,ioos.station.NOAA.NDBC:GBIF1:1,2016-10-02T13:00:00Z,25.3780,-81.0290,1.5,1.78,1111122 
ENP,ioos.station.NOAA.NDBC:GBIF1:1,2016-10-02T14:00:00Z,25.3780,-81.0290,1.5,1.51,1111122 
ENP,ioos.station.NOAA.NDBC:GBIF1:1,2016-10-02T15:00:00Z,25.3780,-81.0290,1.5,1.49,1111122 
ENP,ioos.station.NOAA.NDBC:GBIF1:1,2016-10-02T16:00:00Z,25.3780,-81.0290,1.5,1.41,1111122 
ENP,ioos.station.NOAA.NDBC:GBIF1:1,2016-10-02T17:00:00Z,25.3780,-81.0290,1.5,1.18,1111122 
ENP,ioos.station.NOAA.NDBC:GBIF1:1,2016-10-02T18:00:00Z,25.3780,-81.0290,1.5,0.95,1111122 
ENP,ioos.station.NOAA.NDBC:GBIF1:1,2016-10-02T19:00:00Z,25.3780,-81.0290,1.5,0.94,1111122 
ENP,ioos.station.NOAA.NDBC:GBIF1:1,2016-10-02T20:00:00Z,25.3780,-81.0290,1.5,1.1,1111122 
ENP,ioos.station.NOAA.NDBC:GBIF1:1,2016-10-02T21:00:00Z,25.3780,-81.0290,1.5,4.01,1111122 
ENP,ioos.station.NOAA.NDBC:GBIF1:1,2016-10-02T22:00:00Z,25.3780,-81.0290,1.5,7.72,1111122 
ENP,ioos.station.NOAA.NDBC:GBIF1:1,2016-10-02T23:00:00Z,25.3780,-81.0290,1.5,8.83,1111122 
ENP,ioos.station.NOAA.NDBC:GBIF1:1,2016-10-03T00:00:00Z,25.3780,-81.0290,1.5,5.34,1111122 
ENP,ioos.station.NOAA.NDBC:GBIF1:1,2016-10-03T01:00:00Z,25.3780,-81.0290,1.5,3.09,1111122 
ENP,ioos.station.NOAA.NDBC:GBIF1:1,2016-10-03T02:00:00Z,25.3780,-81.0290,1.5,2.0,1111122 
ENP,ioos.station.NOAA.NDBC:GBIF1:1,2016-10-03T04:00:00Z,25.3780,-81.0290,1.5,1.62,1111122 
ENP,ioos.station.NOAA.NDBC:GBIF1:1,2016-10-03T05:00:00Z,25.3780,-81.0290,1.5,1.35,1111122 
ENP,ioos.station.NOAA.NDBC:GBIF1:1,2016-10-03T07:00:00Z,25.3780,-81.0290,1.5,1.0,1111122 
ENP,ioos.station.NOAA.NDBC:GBIF1:1,2016-10-03T08:00:00Z,25.3780,-81.0290,1.5,1.08,1111122 
ENP,ioos.station.NOAA.NDBC:GBIF1:1,2016-10-03T09:00:00Z,25.3780,-81.0290,1.5,2.27,1111122 
ENP,ioos.station.NOAA.NDBC:GBIF1:1,2016-10-03T11:00:00Z,25.3780,-81.0290,1.5,5.17,1111122 
ENP,ioos.station.NOAA.NDBC:GBIF1:1,2016-10-03T12:00:00Z,25.3780,-81.0290,1.5,3.13,1111122 
ENP,ioos.station.NOAA.NDBC:GBIF1:1,2016-10-03T13:00:00Z,25.3780,-81.0290,1.5,1.87,1111122 
ENP,ioos.station.NOAA.NDBC:GBIF1:1,2016-10-03T14:00:00Z,25.3780,-81.0290,1.5,1.51,1111122 
ENP,ioos.station.NOAA.NDBC:GBIF1:1,2016-10-03T15:00:00Z,25.3780,-81.0290,1.5,1.47,1111122 
ENP,ioos.station.NOAA.NDBC:GBIF1:1,2016-10-03T16:00:00Z,25.3780,-81.0290,1.5,1.53,1111122 
ENP,ioos.station.NOAA.NDBC:GBIF1:1,2016-10-03T17:00:00Z,25.3780,-81.0290,1.5,1.42,1111122 
ENP,ioos.station.NOAA.NDBC:GBIF1:1,2016-10-03T18:00:00Z,25.3780,-81.0290,1.5,1.12,1111122 
ENP,ioos.station.NOAA.NDBC:GBIF1:1,2016-10-03T19:00:00Z,25.3780,-81.0290,1.5,0.99,1111122 
ENP,ioos.station.NOAA.NDBC:GBIF1:1,2016-10-03T20:00:00Z,25.3780,-81.0290,1.5,1.04,1111122 
ENP,ioos.station.NOAA.NDBC:GBIF1:1,2016-10-03T21:00:00Z,25.3780,-81.0290,1.5,1.47,1111122 
ENP,ioos.station.NOAA.NDBC:GBIF1:1,2016-10-03T22:00:00Z,25.3780,-81.0290,1.5,5.96,1111122 
ENP,ioos.station.NOAA.NDBC:GBIF1:1,2016-10-03T23:00:00Z,25.3780,-81.0290,1.5,9.02,1111122 
ENP,ioos.station.NOAA.NDBC:GBIF1:1,2016-10-04T00:00:00Z,25.3780,-81.0290,1.5,10.04,1111122 
ENP,ioos.station.NOAA.NDBC:GBIF1:1,2016-10-04T01:00:00Z,25.3780,-81.0290,1.5,6.85,1111122 
ENP,ioos.station.NOAA.NDBC:GBIF1:1,2016-10-04T02:00:00Z,25.3780,-81.0290,1.5,4.5,1111122 
ENP,ioos.station.NOAA.NDBC:GBIF1:1,2016-10-04T04:00:00Z,25.3780,-81.0290,1.5,2.19,1111122 
ENP,ioos.station.NOAA.NDBC:GBIF1:1,2016-10-04T05:00:00Z,25.3780,-81.0290,1.5,1.86,1111122 
ENP,ioos.station.NOAA.NDBC:GBIF1:1,2016-10-04T07:00:00Z,25.3780,-81.0290,1.5,1.09,1111122 
ENP,ioos.station.NOAA.NDBC:GBIF1:1,2016-10-04T08:00:00Z,25.3780,-81.0290,1.5,1.12,1111122 
ENP,ioos.station.NOAA.NDBC:GBIF1:1,2016-10-04T09:00:00Z,25.3780,-81.0290,1.5,1.89,1111122 
ENP,ioos.station.NOAA.NDBC:GBIF1:1,2016-10-04T10:00:00Z,25.3780,-81.0290,1.5,4.97,1111122 
ENP,ioos.station.NOAA.NDBC:GBIF1:1,2016-10-04T11:00:00Z,25.3780,-81.0290,1.5,7.7,1111122 
ENP,ioos.station.NOAA.NDBC:GBIF1:1,2016-10-04T12:00:00Z,25.3780,-81.0290,1.5,6.53,1111122 
ENP,ioos.station.NOAA.NDBC:GBIF1:1,2016-10-04T13:00:00Z,25.3780,-81.0290,1.5,4.87,1111122 
ENP,ioos.station.NOAA.NDBC:GBIF1:1,2016-10-04T14:00:00Z,25.3780,-81.0290,1.5,2.93,1111122 
ENP,ioos.station.NOAA.NDBC:GBIF1:1,2016-10-04T15:00:00Z,25.3780,-81.0290,1.5,1.93,1111122 
ENP,ioos.station.NOAA.NDBC:GBIF1:1,2016-10-04T16:00:00Z,25.3780,-81.0290,1.5,1.74,1111122 
ENP,ioos.station.NOAA.NDBC:GBIF1:1,2016-10-04T17:00:00Z,25.3780,-81.0290,1.5,1.68,1111122 
ENP,ioos.station.NOAA.NDBC:GBIF1:1,2016-10-04T18:00:00Z,25.3780,-81.0290,1.5,1.31,1111122 
ENP,ioos.station.NOAA.NDBC:GBIF1:1,2016-10-04T19:00:00Z,25.3780,-81.0290,1.5,1.1,1111122 
ENP,ioos.station.NOAA.NDBC:GBIF1:1,2016-10-04T20:00:00Z,25.3780,-81.0290,1.5,1.1,1111122 
ENP,ioos.station.NOAA.NDBC:GBIF1:1,2016-10-04T21:00:00Z,25.3780,-81.0290,1.5,1.33,1111122 
ENP,ioos.station.NOAA.NDBC:GBIF1:1,2016-10-04T22:00:00Z,25.3780,-81.0290,1.5,5.17,1111122 
ENP,ioos.station.NOAA.NDBC:GBIF1:1,2016-10-04T23:00:00Z,25.3780,-81.0290,1.5,9.08,1111122 
ENP,ioos.station.NOAA.NDBC:GBIF1:1,2016-10-05T00:00:00Z,25.3780,-81.0290,1.5,10.68,1111122 
ENP,ioos.station.NOAA.NDBC:GBIF1:1,2016-10-05T01:00:00Z,25.3780,-81.0290,1.5,11.19,1111122 
ENP,ioos.station.NOAA.NDBC:GBIF1:1,2016-10-05T02:00:00Z,25.3780,-81.0290,1.5,4.93,1111122 
ENP,ioos.station.NOAA.NDBC:GBIF1:1,2016-10-05T04:00:00Z,25.3780,-81.0290,1.5,2.31,1111122 
ENP,ioos.station.NOAA.NDBC:GBIF1:1,2016-10-05T05:00:00Z,25.3780,-81.0290,1.5,1.98,1111122 
ENP,ioos.station.NOAA.NDBC:GBIF1:1,2016-10-05T07:00:00Z,25.3780,-81.0290,1.5,1.51,1111122 
ENP,ioos.station.NOAA.NDBC:GBIF1:1,2016-10-05T08:00:00Z,25.3780,-81.0290,1.5,2.1,1111122 
ENP,ioos.station.NOAA.NDBC:GBIF1:1,2016-10-05T09:00:00Z,25.3780,-81.0290,1.5,5.06,1111122 
ENP,ioos.station.NOAA.NDBC:GBIF1:1,2016-10-05T11:00:00Z,25.3780,-81.0290,1.5,11.39,1111122 
ENP,ioos.station.NOAA.NDBC:GBIF1:1,2016-10-05T12:00:00Z,25.3780,-81.0290,1.5,12.62,1111122 
ENP,ioos.station.NOAA.NDBC:GBIF1:1,2016-10-05T13:00:00Z,25.3780,-81.0290,1.5,9.34,1111122 
ENP,ioos.station.NOAA.NDBC:GBIF1:1,2016-10-05T14:00:00Z,25.3780,-81.0290,1.5,6.54,1111122 
ENP,ioos.station.NOAA.NDBC:GBIF1:1,2016-10-05T15:00:00Z,25.3780,-81.0290,1.5,4.9,1111122 
ENP,ioos.station.NOAA.NDBC:GBIF1:1,2016-10-05T16:00:00Z,25.3780,-81.0290,1.5,3.21,1111122 
ENP,ioos.station.NOAA.NDBC:GBIF1:1,2016-10-05T17:00:00Z,25.3780,-81.0290,1.5,2.35,1111122 
ENP,ioos.station.NOAA.NDBC:GBIF1:1,2016-10-05T18:00:00Z,25.3780,-81.0290,1.5,2.04,1111122 
ENP,ioos.station.NOAA.NDBC:GBIF1:1,2016-10-05T19:00:00Z,25.3780,-81.0290,1.5,1.48,1111122 
ENP,ioos.station.NOAA.NDBC:GBIF1:1,2016-10-05T20:00:00Z,25.3780,-81.0290,1.5,1.19,1111122 
ENP,ioos.station.NOAA.NDBC:GBIF1:1,2016-10-05T21:00:00Z,25.3780,-81.0290,1.5,1.25,1111122 
ENP,ioos.station.NOAA.NDBC:GBIF1:1,2016-10-05T22:00:00Z,25.3780,-81.0290,1.5,1.83,1111122 
ENP,ioos.station.NOAA.NDBC:GBIF1:1,2016-10-05T23:00:00Z,25.3780,-81.0290,1.5,5.52,1111122 
ENP,ioos.station.NOAA.NDBC:GBIF1:1,2016-10-06T00:00:00Z,25.3780,-81.0290,1.5,8.83,1111122 
ENP,ioos.station.NOAA.NDBC:GBIF1:1,2016-10-06T01:00:00Z,25.3780,-81.0290,1.5,8.58,1111122 
ENP,ioos.station.NOAA.NDBC:GBIF1:1,2016-10-06T04:00:00Z,25.3780,-81.0290,1.5,2.5,1111122 
ENP,ioos.station.NOAA.NDBC:GBIF1:1,2016-10-06T07:00:00Z,25.3780,-81.0290,1.5,1.2,1111122 
ENP,ioos.station.NOAA.NDBC:GBIF1:1,2016-10-06T08:00:00Z,25.3780,-81.0290,1.5,1.09,1111122 
ENP,ioos.station.NOAA.NDBC:GBIF1:1,2016-10-06T09:00:00Z,25.3780,-81.0290,1.5,1.24,1111122 
ENP,ioos.station.NOAA.NDBC:GBIF1:1,2016-10-06T11:00:00Z,25.3780,-81.0290,1.5,7.39,1111122 
ENP,ioos.station.NOAA.NDBC:GBIF1:1,2016-10-06T12:00:00Z,25.3780,-81.0290,1.5,10.29,1111122 
ENP,ioos.station.NOAA.NDBC:GBIF1:1,2016-10-06T13:00:00Z,25.3780,-81.0290,1.5,10.16,1111122 
ENP,ioos.station.NOAA.NDBC:GBIF1:1,2016-10-06T14:00:00Z,25.3780,-81.0290,1.5,7.24,1111122 
ENP,ioos.station.NOAA.NDBC:GBIF1:1,2016-10-06T15:00:00Z,25.3780,-81.0290,1.5,4.85,1111122 
ENP,ioos.station.NOAA.NDBC:GBIF1:1,2016-10-06T16:00:00Z,25.3780,-81.0290,1.5,2.95,1111122 
ENP,ioos.station.NOAA.NDBC:GBIF1:1,2016-10-06T17:00:00Z,25.3780,-81.0290,1.5,2.04,1111122 
ENP,ioos.station.NOAA.NDBC:GBIF1:1,2016-10-06T18:00:00Z,25.3780,-81.0290,1.5,1.79,1111122 
ENP,ioos.station.NOAA.NDBC:GBIF1:1,2016-10-06T19:00:00Z,25.3780,-81.0290,1.5,1.57,1111122 
ENP,ioos.station.NOAA.NDBC:GBIF1:1,2016-10-06T20:00:00Z,25.3780,-81.0290,1.5,1.1,1111122 
ENP,ioos.station.NOAA.NDBC:GBIF1:1,2016-10-06T21:00:00Z,25.3780,-81.0290,1.5,0.96,1111122 
ENP,ioos.station.NOAA.NDBC:GBIF1:1,2016-10-06T22:00:00Z,25.3780,-81.0290,1.5,0.99,1111122 
ENP,ioos.station.NOAA.NDBC:GBIF1:1,2016-10-06T23:00:00Z,25.3780,-81.0290,1.5,1.53,1111122 
ENP,ioos.station.NOAA.NDBC:GBIF1:1,2016-10-07T00:00:00Z,25.3780,-81.0290,1.5,6.46,1111122 
ENP,ioos.station.NOAA.NDBC:GBIF1:1,2016-10-07T01:00:00Z,25.3780,-81.0290,1.5,10.81,1111122 
ENP,ioos.station.NOAA.NDBC:GBIF1:1,2016-10-07T02:00:00Z,25.3780,-81.0290,1.5,12.62,1111122 
ENP,ioos.station.NOAA.NDBC:GBIF1:1,2016-10-07T04:00:00Z,25.3780,-81.0290,1.5,12.04,1111122 
ENP,ioos.station.NOAA.NDBC:GBIF1:1,2016-10-07T05:00:00Z,25.3780,-81.0290,1.5,7.84,1111122 
ENP,ioos.station.NOAA.NDBC:GBIF1:1,2016-10-07T07:00:00Z,25.3780,-81.0290,1.5,7.85,1111122 
ENP,ioos.station.NOAA.NDBC:GBIF1:1,2016-10-07T08:00:00Z,25.3780,-81.0290,1.5,8.51,1111122 
ENP,ioos.station.NOAA.NDBC:GBIF1:1,2016-10-07T09:00:00Z,25.3780,-81.0290,1.5,9.65,1111122 
ENP,ioos.station.NOAA.NDBC:GBIF1:1,2016-10-07T10:00:00Z,25.3780,-81.0290,1.5,12.1,1111122 
ENP,ioos.station.NOAA.NDBC:GBIF1:1,2016-10-07T11:00:00Z,25.3780,-81.0290,1.5,14.93,1111122 
ENP,ioos.station.NOAA.NDBC:GBIF1:1,2016-10-07T12:00:00Z,25.3780,-81.0290,1.5,17.68,1111122 
ENP,ioos.station.NOAA.NDBC:GBIF1:1,2016-10-07T13:00:00Z,25.3780,-81.0290,1.5,19.17,1111122 
ENP,ioos.station.NOAA.NDBC:GBIF1:1,2016-10-07T14:00:00Z,25.3780,-81.0290,1.5,19.86,1111122 
ENP,ioos.station.NOAA.NDBC:GBIF1:1,2016-10-07T15:00:00Z,25.3780,-81.0290,1.5,15.2,1111122 
ENP,ioos.station.NOAA.NDBC:GBIF1:1,2016-10-07T16:00:00Z,25.3780,-81.0290,1.5,17.27,1111122 
ENP,ioos.station.NOAA.NDBC:GBIF1:1,2016-10-07T18:00:00Z,25.3780,-81.0290,1.5,10.81,1111122 
ENP,ioos.station.NOAA.NDBC:GBIF1:1,2016-10-07T20:00:00Z,25.3780,-81.0290,1.5,11.52,1111122 
ENP,ioos.station.NOAA.NDBC:GBIF1:1,2016-10-07T21:00:00Z,25.3780,-81.0290,1.5,11.32,1111122 
ENP,ioos.station.NOAA.NDBC:GBIF1:1,2016-10-07T22:00:00Z,25.3780,-81.0290,1.5,11.78,1111122 
ENP,ioos.station.NOAA.NDBC:GBIF1:1,2016-10-07T23:00:00Z,25.3780,-81.0290,1.5,12.36,1111122 
ENP,ioos.station.NOAA.NDBC:GBIF1:1,2016-10-08T00:00:00Z,25.3780,-81.0290,1.5,13.34,1111122 
ENP,ioos.station.NOAA.NDBC:GBIF1:1,2016-10-08T01:00:00Z,25.3780,-81.0290,1.5,15.0,1111122 
ENP,ioos.station.NOAA.NDBC:GBIF1:1,2016-10-08T02:00:00Z,25.3780,-81.0290,1.5,16.47,1111122 
ENP,ioos.station.NOAA.NDBC:GBIF1:1,2016-10-08T04:00:00Z,25.3780,-81.0290,1.5,15.53,1111122 
ENP,ioos.station.NOAA.NDBC:GBIF1:1,2016-10-08T05:00:00Z,25.3780,-81.0290,1.5,12.75,1111122 
ENP,ioos.station.NOAA.NDBC:GBIF1:1,2016-10-08T07:00:00Z,25.3780,-81.0290,1.5,10.55,1111122 
ENP,ioos.station.NOAA.NDBC:GBIF1:1,2016-10-08T08:00:00Z,25.3780,-81.0290,1.5,9.53,1111122 
ENP,ioos.station.NOAA.NDBC:GBIF1:1,2016-10-08T09:00:00Z,25.3780,-81.0290,1.5,9.91,1111122 
ENP,ioos.station.NOAA.NDBC:GBIF1:1,2016-10-08T11:00:00Z,25.3780,-81.0290,1.5,12.49,1111122 
ENP,ioos.station.NOAA.NDBC:GBIF1:1,2016-10-08T12:00:00Z,25.3780,-81.0290,1.5,14.8,1111122 
ENP,ioos.station.NOAA.NDBC:GBIF1:1,2016-10-08T13:00:00Z,25.3780,-81.0290,1.5,16.8,1111122 
ENP,ioos.station.NOAA.NDBC:GBIF1:1,2016-10-08T14:00:00Z,25.3780,-81.0290,1.5,18.02,1111122 
ENP,ioos.station.NOAA.NDBC:GBIF1:1,2016-10-08T15:00:00Z,25.3780,-81.0290,1.5,17.68,1111122 
ENP,ioos.station.NOAA.NDBC:GBIF1:1,2016-10-08T16:00:00Z,25.3780,-81.0290,1.5,13.08,1111122 
ENP,ioos.station.NOAA.NDBC:GBIF1:1,2016-10-08T17:00:00Z,25.3780,-81.0290,1.5,11.39,1111122 
ENP,ioos.station.NOAA.NDBC:GBIF1:1,2016-10-08T18:00:00Z,25.3780,-81.0290,1.5,9.84,1111122 
ENP,ioos.station.NOAA.NDBC:GBIF1:1,2016-10-08T19:00:00Z,25.3780,-81.0290,1.5,8.26,1111122 
ENP,ioos.station.NOAA.NDBC:GBIF1:1,2016-10-08T20:00:00Z,25.3780,-81.0290,1.5,6.91,1111122 
ENP,ioos.station.NOAA.NDBC:GBIF1:1,2016-10-08T21:00:00Z,25.3780,-81.0290,1.5,5.94,1111122 
ENP,ioos.station.NOAA.NDBC:GBIF1:1,2016-10-08T22:00:00Z,25.3780,-81.0290,1.5,3.71,1111122 
ENP,ioos.station.NOAA.NDBC:GBIF1:1,2016-10-08T23:00:00Z,25.3780,-81.0290,1.5,3.67,1111122 
ENP,ioos.station.NOAA.NDBC:GBIF1:1,2016-10-09T00:00:00Z,25.3780,-81.0290,1.5,4.4,1111122 
ENP,ioos.station.NOAA.NDBC:GBIF1:1,2016-10-09T01:00:00Z,25.3780,-81.0290,1.5,6.86,1111122 
ENP,ioos.station.NOAA.NDBC:GBIF1:1,2016-10-09T02:00:00Z,25.3780,-81.0290,1.5,9.34,1111122 
ENP,ioos.station.NOAA.NDBC:GBIF1:1,2016-10-09T04:00:00Z,25.3780,-81.0290,1.5,11.32,1111122 
ENP,ioos.station.NOAA.NDBC:GBIF1:1,2016-10-09T05:00:00Z,25.3780,-81.0290,1.5,9.21,1111122 
ENP,ioos.station.NOAA.NDBC:GBIF1:1,2016-10-09T07:00:00Z,25.3780,-81.0290,1.5,5.9,1111122 
ENP,ioos.station.NOAA.NDBC:GBIF1:1,2016-10-09T08:00:00Z,25.3780,-81.0290,1.5,4.84,1111122 
ENP,ioos.station.NOAA.NDBC:GBIF1:1,2016-10-09T09:00:00Z,25.3780,-81.0290,1.5,3.92,1111122 
ENP,ioos.station.NOAA.NDBC:GBIF1:1,2016-10-09T11:00:00Z,25.3780,-81.0290,1.5,3.13,1111122 
ENP,ioos.station.NOAA.NDBC:GBIF1:1,2016-10-09T12:00:00Z,25.3780,-81.0290,1.5,4.36,1111122 
ENP,ioos.station.NOAA.NDBC:GBIF1:1,2016-10-09T13:00:00Z,25.3780,-81.0290,1.5,7.26,1111122 
ENP,ioos.station.NOAA.NDBC:GBIF1:1,2016-10-09T14:00:00Z,25.3780,-81.0290,1.5,9.27,1111122 
ENP,ioos.station.NOAA.NDBC:GBIF1:1,2016-10-09T15:00:00Z,25.3780,-81.0290,1.5,7.99,1111122 
ENP,ioos.station.NOAA.NDBC:GBIF1:1,2016-10-09T16:00:00Z,25.3780,-81.0290,1.5,6.28,1111122 
ENP,ioos.station.NOAA.NDBC:GBIF1:1,2016-10-09T17:00:00Z,25.3780,-81.0290,1.5,4.26,1111122 
ENP,ioos.station.NOAA.NDBC:GBIF1:1,2016-10-09T18:00:00Z,25.3780,-81.0290,1.5,3.55,1111122 
ENP,ioos.station.NOAA.NDBC:GBIF1:1,2016-10-09T19:00:00Z,25.3780,-81.0290,1.5,3.58,1111122 
ENP,ioos.station.NOAA.NDBC:GBIF1:1,2016-10-09T20:00:00Z,25.3780,-81.0290,1.5,3.62,1111122 
ENP,ioos.station.NOAA.NDBC:GBIF1:1,2016-10-09T21:00:00Z,25.3780,-81.0290,1.5,3.67,1111122 
ENP,ioos.station.NOAA.NDBC:GBIF1:1,2016-10-09T22:00:00Z,25.3780,-81.0290,1.5,3.54,1111122 
ENP,ioos.station.NOAA.NDBC:GBIF1:1,2016-10-09T23:00:00Z,25.3780,-81.0290,1.5,1.37,1111122 
ENP,ioos.station.NOAA.NDBC:GBIF1:1,2016-10-10T00:00:00Z,25.3780,-81.0290,1.5,0.96,1111122 
ENP,ioos.station.NOAA.NDBC:GBIF1:1,2016-10-10T01:00:00Z,25.3780,-81.0290,1.5,0.89,1111122 
ENP,ioos.station.NOAA.NDBC:GBIF1:1,2016-10-10T02:00:00Z,25.3780,-81.0290,1.5,0.99,1111122 
ENP,ioos.station.NOAA.NDBC:GBIF1:1,2016-10-10T04:00:00Z,25.3780,-81.0290,1.5,2.14,1111122 
ENP,ioos.station.NOAA.NDBC:GBIF1:1,2016-10-10T05:00:00Z,25.3780,-81.0290,1.5,2.26,1111122 
ENP,ioos.station.NOAA.NDBC:GBIF1:1,2016-10-10T07:00:00Z,25.3780,-81.0290,1.5,1.59,1111122 
ENP,ioos.station.NOAA.NDBC:GBIF1:1,2016-10-10T08:00:00Z,25.3780,-81.0290,1.5,1.68,1111122 
ENP,ioos.station.NOAA.NDBC:GBIF1:1,2016-10-10T09:00:00Z,25.3780,-81.0290,1.5,1.96,1111122 
ENP,ioos.station.NOAA.NDBC:GBIF1:1,2016-10-10T11:00:00Z,25.3780,-81.0290,1.5,1.24,1111122 
ENP,ioos.station.NOAA.NDBC:GBIF1:1,2016-10-10T12:00:00Z,25.3780,-81.0290,1.5,1.0,1111122 
ENP,ioos.station.NOAA.NDBC:GBIF1:1,2016-10-10T13:00:00Z,25.3780,-81.0290,1.5,0.85,1111122 
ENP,ioos.station.NOAA.NDBC:GBIF1:1,2016-10-10T14:00:00Z,25.3780,-81.0290,1.5,0.85,1111122 
ENP,ioos.station.NOAA.NDBC:GBIF1:1,2016-10-10T15:00:00Z,25.3780,-81.0290,1.5,0.99,1111122 
ENP,ioos.station.NOAA.NDBC:GBIF1:1,2016-10-10T16:00:00Z,25.3780,-81.0290,1.5,1.51,1111122 
ENP,ioos.station.NOAA.NDBC:GBIF1:1,2016-10-10T17:00:00Z,25.3780,-81.0290,1.5,1.72,1111122 
ENP,ioos.station.NOAA.NDBC:GBIF1:1,2016-10-10T18:00:00Z,25.3780,-81.0290,1.5,1.63,1111122 
ENP,ioos.station.NOAA.NDBC:GBIF1:1,2016-10-10T19:00:00Z,25.3780,-81.0290,1.5,1.52,1111122 
ENP,ioos.station.NOAA.NDBC:GBIF1:1,2016-10-10T20:00:00Z,25.3780,-81.0290,1.5,1.54,1111122 
ENP,ioos.station.NOAA.NDBC:GBIF1:1,2016-10-10T21:00:00Z,25.3780,-81.0290,1.5,1.67,1111122 
ENP,ioos.station.NOAA.NDBC:GBIF1:1,2016-10-10T22:00:00Z,25.3780,-81.0290,1.5,1.85,1111122 
ENP,ioos.station.NOAA.NDBC:GBIF1:1,2016-10-10T23:00:00Z,25.3780,-81.0290,1.5,1.67,1111122 
ENP,ioos.station.NOAA.NDBC:GBIF1:1,2016-10-11T00:00:00Z,25.3780,-81.0290,1.5,1.22,1111122 
ENP,ioos.station.NOAA.NDBC:GBIF1:1,2016-10-11T01:00:00Z,25.3780,-81.0290,1.5,0.95,1111122 
ENP,ioos.station.NOAA.NDBC:GBIF1:1,2016-10-11T02:00:00Z,25.3780,-81.0290,1.5,0.84,1111122 
ENP,ioos.station.NOAA.NDBC:GBIF1:1,2016-10-11T04:00:00Z,25.3780,-81.0290,1.5,1.22,1111122 
ENP,ioos.station.NOAA.NDBC:GBIF1:1,2016-10-11T05:00:00Z,25.3780,-81.0290,1.5,2.2,1111122 
ENP,ioos.station.NOAA.NDBC:GBIF1:1,2016-10-11T07:00:00Z,25.3780,-81.0290,1.5,2.31,1111122 
ENP,ioos.station.NOAA.NDBC:GBIF1:1,2016-10-11T08:00:00Z,25.3780,-81.0290,1.5,1.84,1111122 
ENP,ioos.station.NOAA.NDBC:GBIF1:1,2016-10-11T09:00:00Z,25.3780,-81.0290,1.5,1.77,1111122 
ENP,ioos.station.NOAA.NDBC:GBIF1:1,2016-10-11T10:00:00Z,25.3780,-81.0290,1.5,1.72,1111122 
ENP,ioos.station.NOAA.NDBC:GBIF1:1,2016-10-11T11:00:00Z,25.3780,-81.0290,1.5,1.1,1111122 
ENP,ioos.station.NOAA.NDBC:GBIF1:1,2016-10-11T12:00:00Z,25.3780,-81.0290,1.5,0.87,1111122 
ENP,ioos.station.NOAA.NDBC:GBIF1:1,2016-10-11T13:00:00Z,25.3780,-81.0290,1.5,0.83,1111122 
ENP,ioos.station.NOAA.NDBC:GBIF1:1,2016-10-11T14:00:00Z,25.3780,-81.0290,1.5,0.98,1111122 
ENP,ioos.station.NOAA.NDBC:GBIF1:1,2016-10-11T15:00:00Z,25.3780,-81.0290,1.5,2.42,1111122 
ENP,ioos.station.NOAA.NDBC:GBIF1:1,2016-10-11T16:00:00Z,25.3780,-81.0290,1.5,5.35,1111122 
ENP,ioos.station.NOAA.NDBC:GBIF1:1,2016-10-11T17:00:00Z,25.3780,-81.0290,1.5,7.32,1111122 
ENP,ioos.station.NOAA.NDBC:GBIF1:1,2016-10-11T18:00:00Z,25.3780,-81.0290,1.5,7.17,1111122 
ENP,ioos.station.NOAA.NDBC:GBIF1:1,2016-10-11T19:00:00Z,25.3780,-81.0290,1.5,5.37,1111122 
ENP,ioos.station.NOAA.NDBC:GBIF1:1,2016-10-11T20:00:00Z,25.3780,-81.0290,1.5,3.32,1111122 
ENP,ioos.station.NOAA.NDBC:GBIF1:1,2016-10-11T21:00:00Z,25.3780,-81.0290,1.5,2.24,1111122 
ENP,ioos.station.NOAA.NDBC:GBIF1:1,2016-10-11T22:00:00Z,25.3780,-81.0290,1.5,1.67,1111122 
ENP,ioos.station.NOAA.NDBC:GBIF1:1,2016-10-11T23:00:00Z,25.3780,-81.0290,1.5,1.66,1111122 
ENP,ioos.station.NOAA.NDBC:GBIF1:1,2016-10-12T00:00:00Z,25.3780,-81.0290,1.5,1.54,1111122 
ENP,ioos.station.NOAA.NDBC:GBIF1:1,2016-10-12T01:00:00Z,25.3780,-81.0290,1.5,1.2,1111122 
ENP,ioos.station.NOAA.NDBC:GBIF1:1,2016-10-12T04:00:00Z,25.3780,-81.0290,1.5,1.05,1111122 
ENP,ioos.station.NOAA.NDBC:GBIF1:1,2016-10-12T07:00:00Z,25.3780,-81.0290,1.5,3.99,1111122 
ENP,ioos.station.NOAA.NDBC:GBIF1:1,2016-10-12T08:00:00Z,25.3780,-81.0290,1.5,2.21,1111122 
ENP,ioos.station.NOAA.NDBC:GBIF1:1,2016-10-12T09:00:00Z,25.3780,-81.0290,1.5,1.69,1111122 
ENP,ioos.station.NOAA.NDBC:GBIF1:1,2016-10-12T11:00:00Z,25.3780,-81.0290,1.5,1.57,1111122 
ENP,ioos.station.NOAA.NDBC:GBIF1:1,2016-10-12T12:00:00Z,25.3780,-81.0290,1.5,1.38,1111122 
ENP,ioos.station.NOAA.NDBC:GBIF1:1,2016-10-12T13:00:00Z,25.3780,-81.0290,1.5,1.09,1111122 
ENP,ioos.station.NOAA.NDBC:GBIF1:1,2016-10-12T14:00:00Z,25.3780,-81.0290,1.5,0.95,1111122 
ENP,ioos.station.NOAA.NDBC:GBIF1:1,2016-10-12T15:00:00Z,25.3780,-81.0290,1.5,1.03,1111122 
ENP,ioos.station.NOAA.NDBC:GBIF1:1,2016-10-12T16:00:00Z,25.3780,-81.0290,1.5,2.59,1111122 
ENP,ioos.station.NOAA.NDBC:GBIF1:1,2016-10-12T17:00:00Z,25.3780,-81.0290,1.5,7.08,1111122 
ENP,ioos.station.NOAA.NDBC:GBIF1:1,2016-10-12T18:00:00Z,25.3780,-81.0290,1.5,9.72,1111122 
ENP,ioos.station.NOAA.NDBC:GBIF1:1,2016-10-12T19:00:00Z,25.3780,-81.0290,1.5,10.29,1111122 
ENP,ioos.station.NOAA.NDBC:GBIF1:1,2016-10-12T20:00:00Z,25.3780,-81.0290,1.5,7.89,1111122 
ENP,ioos.station.NOAA.NDBC:GBIF1:1,2016-10-12T21:00:00Z,25.3780,-81.0290,1.5,5.52,1111122 
ENP,ioos.station.NOAA.NDBC:GBIF1:1,2016-10-12T22:00:00Z,25.3780,-81.0290,1.5,3.57,1111122 
ENP,ioos.station.NOAA.NDBC:GBIF1:1,2016-10-12T23:00:00Z,25.3780,-81.0290,1.5,2.3,1111122 
ENP,ioos.station.NOAA.NDBC:GBIF1:1,2016-10-13T00:00:00Z,25.3780,-81.0290,1.5,2.01,1111122 
ENP,ioos.station.NOAA.NDBC:GBIF1:1,2016-10-13T01:00:00Z,25.3780,-81.0290,1.5,1.45,1111122 
ENP,ioos.station.NOAA.NDBC:GBIF1:1,2016-10-13T04:00:00Z,25.3780,-81.0290,1.5,1.64,1111122 
ENP,ioos.station.NOAA.NDBC:GBIF1:1,2016-10-13T07:00:00Z,25.3780,-81.0290,1.5,12.1,1111122 
ENP,ioos.station.NOAA.NDBC:GBIF1:1,2016-10-13T08:00:00Z,25.3780,-81.0290,1.5,12.23,1111122 
ENP,ioos.station.NOAA.NDBC:GBIF1:1,2016-10-13T09:00:00Z,25.3780,-81.0290,1.5,10.48,1111122 
ENP,ioos.station.NOAA.NDBC:GBIF1:1,2016-10-13T11:00:00Z,25.3780,-81.0290,1.5,5.09,1111122 
ENP,ioos.station.NOAA.NDBC:GBIF1:1,2016-10-13T12:00:00Z,25.3780,-81.0290,1.5,3.41,1111122 
ENP,ioos.station.NOAA.NDBC:GBIF1:1,2016-10-13T13:00:00Z,25.3780,-81.0290,1.5,2.65,1111122 
ENP,ioos.station.NOAA.NDBC:GBIF1:1,2016-10-13T14:00:00Z,25.3780,-81.0290,1.5,1.61,1111122 
ENP,ioos.station.NOAA.NDBC:GBIF1:1,2016-10-13T15:00:00Z,25.3780,-81.0290,1.5,2.28,1111122 
ENP,ioos.station.NOAA.NDBC:GBIF1:1,2016-10-13T16:00:00Z,25.3780,-81.0290,1.5,5.35,1111122 
ENP,ioos.station.NOAA.NDBC:GBIF1:1,2016-10-13T17:00:00Z,25.3780,-81.0290,1.5,8.96,1111122 